Location: Harwich
(41.7160°N, 69.9939°W)
Time: 00:34:06
(UTC+02:00)

AO-7 - Pass Details

Date: 19 September 2024
Orbit: 1440 x 1458 km, 102.0° (Epoch: 10 October)

Event Time Altitude Azimuth Distance (km) Brightness Sun altitude
Rises 11:36:16 0° 23° (NNE) 4,573 ? -9.8°
Reaches altitude 10° 11:39:18 10° 30° (NNE) 3,589 ? -9.3°
Maximum altitude 11:47:10 43° 100° (E) 1,945 ? -7.8°
Drops below altitude 10° 11:54:57 10° 170° (S) 3,560 ? -6.4°
Sets 11:57:54 0° 177° (S) 4,532 ? -5.8°
